Flag for U.S.A. Weather past 2 weeks in Leesburg, Virginia, U.S.A.

68 °F


Feels Like: 68 °F
Forecast: 39 / 67 °F
Wind: 7 mph from Southwest

Location: Leesburg / Godfrey

Current Time: Nov 27, 2015 at 3:58:28 PM

Latest Report: Nov 27, 2015 at 3:15 PM

Visibility: 10 mi

Pressure: 30.37 "Hg

Humidity: 56%

Dew point: 52 °F

Location of LeesburgLocation

Historic Weather in Leesburg — Graph


Leesburg temperature yesterday

Maximum temperature yesterday: 63 °F (at 12:55 PM)
Minimum temperature yesterday: 34 °F (at 2:15 AM)
Average temperature yesterday: 47 °F

Past Weeks' High & Low Weather Summary

High70 °F (Nov 27, 2:15 PM)100% (Nov 14, 10:55 PM)30.79 "Hg (Nov 14, 10:55 PM)
Low30 °F (Nov 21, 5:35 AM)26% (Nov 20, 4:15 PM)29.60 "Hg (Nov 12, 4:55 PM)
Average48 °F69%30.26 "Hg
* Reported Nov 12 2:15 PM — Nov 27 2:35 PM, Leesburg, Weather by CustomWeather, © 2015

Note: Actual official high and low records may vary slightly from our data, if they occured in-between our weather recording intervals... More about our weather records


Leesburg weather history for previous 24 hours

Time TempWeatherWind HumidityBarometerVisibility
2:35 PM
Fri, Nov 27
70 °FSunny.8 mph50%30.39 "Hg10 mi
2:15 PM70 °FSunny.9 mph50%30.40 "Hg10 mi
1:55 PM68 °FSunny.8 mph53%30.41 "Hg10 mi
1:35 PM68 °FSunny.13 mph53%30.42 "Hg10 mi
1:15 PM68 °FSunny.5 mph56%30.43 "Hg10 mi
12:55 PM68 °FSunny.12 mph53%30.44 "Hg10 mi
12:35 PM68 °FSunny.3 mph56%30.45 "Hg10 mi
12:15 PM68 °FSunny.5 mph60%30.46 "Hg10 mi
11:55 AM64 °FSunny.9 mph68%30.47 "Hg10 mi
11:35 AM63 °FSunny.7 mph68%30.48 "Hg10 mi
11:15 AM61 °FSunny.9 mph72%30.49 "Hg10 mi
10:55 AM59 °FSunny.7 mph77%30.51 "Hg10 mi
10:35 AM57 °FSunny.3 mph77%30.52 "Hg10 mi
10:15 AM54 °FSunny.6 mph88%30.52 "Hg10 mi
9:55 AM52 °FSunny.5 mph100%30.53 "Hg10 mi
9:35 AM48 °FSunny.No wind100%30.54 "Hg10 mi
9:15 AM46 °FSunny.No wind100%30.54 "Hg10 mi
8:55 AM45 °FSunny.No wind100%30.53 "Hg10 mi
8:35 AM43 °FFog.No wind100%30.54 "Hg5 mi
8:15 AM43 °FSunny.5 mph100%30.54 "Hg7 mi
7:55 AM41 °FFog.No wind100%30.55 "Hg3 mi
7:35 AM39 °FFog.3 mph100%30.54 "Hg0 mi
7:15 AM37 °FFog.5 mph100%30.55 "Hg0 mi
6:55 AM36 °FFog.3 mph100%30.54 "Hg0 mi
6:15 AM37 °FFog.No wind100%30.55 "Hg2 mi
5:55 AM37 °FFog.No wind100%30.56 "Hg1 mi
5:35 AM36 °FFog.No wind100%30.57 "Hg1 mi
5:15 AM37 °FFog.No wind100%30.57 "Hg2 mi
4:55 AM39 °FFog.No wind100%30.57 "Hg1 mi
4:35 AM39 °FPassing clouds.No wind100%30.58 "Hg7 mi
4:15 AM37 °FPassing clouds.No wind100%30.59 "Hg10 mi
3:55 AM41 °FClear.No wind100%30.58 "Hg10 mi
3:35 AM37 °FClear.No wind100%30.59 "Hg10 mi
3:15 AM41 °FClear.3 mph100%30.59 "Hg10 mi
2:55 AM43 °FClear.3 mph100%30.59 "Hg10 mi
2:15 AM41 °FClear.3 mph100%30.61 "Hg10 mi
1:55 AM39 °FPassing clouds.No wind100%30.61 "Hg10 mi
1:35 AM43 °FPassing clouds.No wind93%30.61 "Hg10 mi
1:15 AM45 °FPassing clouds.No wind100%30.61 "Hg10 mi
12:55 AM43 °FPassing clouds.3 mph100%30.62 "Hg10 mi
12:15 AM45 °FClear.5 mph93%30.61 "Hg10 mi
11:55 PM
Thu, Nov 26
45 °FClear.No wind100%30.63 "Hg10 mi
10:55 PM48 °FPassing clouds.7 mph87%30.64 "Hg10 mi
10:15 PM45 °FPassing clouds.No wind93%30.65 "Hg10 mi
9:55 PM45 °FPassing clouds.No wind93%30.65 "Hg10 mi
9:15 PM46 °FClear.No wind87%30.64 "Hg10 mi
8:55 PM45 °FClear.No wind93%30.65 "Hg10 mi
8:35 PM46 °FClear.No wind93%30.66 "Hg10 mi
8:15 PM46 °FClear.No wind93%30.66 "Hg10 mi
7:55 PM46 °FClear.No wind87%30.66 "Hg10 mi
7:35 PM50 °FClear.5 mph82%30.66 "Hg10 mi
7:15 PM50 °FClear.3 mph82%30.66 "Hg10 mi
6:55 PM50 °FClear.5 mph82%30.66 "Hg10 mi
6:35 PM50 °FClear.5 mph88%30.66 "Hg10 mi
6:15 PM55 °FClear.3 mph72%30.67 "Hg10 mi
5:55 PM55 °FClear.5 mph72%30.66 "Hg10 mi
4:55 PM59 °FPassing clouds.5 mph63%30.66 "Hg10 mi
4:35 PM59 °FScattered clouds.6 mph63%30.66 "Hg10 mi
3:55 PM63 °FScattered clouds.10 mph56%30.67 "Hg10 mi
3:35 PM63 °FPartly sunny.6 mph56%30.68 "Hg10 mi
3:15 PM63 °FOvercast.14 mph56%30.68 "Hg10 mi
Weather by CustomWeather, © 2015

See weather overviewHow to use our weather pages